1582153216,2020-02-20 00:00,79.80,995.54,1013.62,150,1.83,-1.29,-84,1
1582153279,2020-02-20 00:01,79.82,995.57,1013.65,150,1.82,-1.29,-88,1
1582153339,2020-02-20 00:02,79.39,995.58,1013.65,150,1.81,-1.38,-87,1
1582153399,2020-02-20 00:03,79.22,995.57,1013.64,150,1.81,-1.41,-89,1
1582153459,2020-02-20 00:04,78.75,995.58,1013.65,150,1.81,-1.49,-85,1
1582153519,2020-02-20 00:05,78.88,995.60,1013.67,150,1.80,-1.47,-85,1
1582153579,2020-02-20 00:06,79.17,995.59,1013.66,150,1.80,-1.42,-85,1
1582153639,2020-02-20 00:07,79.39,995.62,1013.69,150,1.79,-1.40,-85,1
1582153699,2020-02-20 00:08,79.50,995.59,1013.67,150,1.78,-1.39,-85,1
1582153759,2020-02-20 00:09,79.87,995.64,1013.71,150,1.77,-1.33,-85,1
1582153820,2020-02-20 00:10,79.94,995.61,1013.68,150,1.76,-1.33,-85,1
1582153880,2020-02-20 00:11,79.84,995.62,1013.69,150,1.74,-1.37,-85,1
1582153940,2020-02-20 00:12,79.75,995.61,1013.69,150,1.73,-1.39,-85,1
1582154000,2020-02-20 00:13,79.76,995.60,1013.67,150,1.72,-1.40,-84,1
1582154060,2020-02-20 00:14,79.77,995.61,1013.68,150,1.70,-1.42,-85,1
1582154120,2020-02-20 00:15,79.49,995.63,1013.70,150,1.69,-1.48,-85,1
1582154180,2020-02-20 00:16,79.69,995.60,1013.68,150,1.67,-1.46,-86,1
1582154240,2020-02-20 00:17,79.29,995.58,1013.66,150,1.66,-1.54,-84,1
1582154300,2020-02-20 00:18,79.14,995.63,1013.70,150,1.64,-1.58,-84,1
1582154360,2020-02-20 00:19,79.85,995.64,1013.71,150,1.62,-1.48,-84,1
1582154420,2020-02-20 00:20,80.50,995.62,1013.69,150,1.60,-1.39,-85,1
1582154480,2020-02-20 00:21,80.42,995.63,1013.70,150,1.59,-1.42,-84,1
1582154540,2020-02-20 00:22,80.21,995.65,1013.72,150,1.58,-1.46,-84,1
1582154600,2020-02-20 00:23,79.84,995.64,1013.71,150,1.56,-1.54,-83,1
1582154660,2020-02-20 00:24,80.63,995.65,1013.73,150,1.55,-1.42,-84,1
1582154720,2020-02-20 00:25,80.35,995.67,1013.74,150,1.53,-1.49,-85,1
1582154780,2020-02-20 00:26,80.16,995.69,1013.77,150,1.52,-1.53,-84,1
1582154840,2020-02-20 00:27,80.44,995.68,1013.75,150,1.51,-1.49,-86,1
1582154900,2020-02-20 00:28,80.22,995.70,1013.77,150,1.49,-1.55,-84,1
1582154960,2020-02-20 00:29,81.12,995.68,1013.75,150,1.49,-1.39,-84,1
1582155021,2020-02-20 00:30,79.87,995.73,1013.80,150,1.49,-1.61,-85,1
1582155081,2020-02-20 00:31,80.72,995.70,1013.77,150,1.46,-1.49,-84,1
1582155141,2020-02-20 00:32,80.61,995.71,1013.78,150,1.46,-1.51,-84,1
1582155201,2020-02-20 00:33,80.68,995.72,1013.79,150,1.46,-1.50,-84,1
1582155261,2020-02-20 00:34,80.99,995.73,1013.81,150,1.45,-1.46,-84,1
1582155321,2020-02-20 00:35,80.99,995.72,1013.79,150,1.44,-1.46,-84,1
1582155381,2020-02-20 00:36,81.17,995.72,1013.79,150,1.43,-1.44,-85,1
1582155441,2020-02-20 00:37,81.35,995.74,1013.81,150,1.43,-1.41,-86,1
1582155501,2020-02-20 00:38,80.70,995.75,1013.82,150,1.42,-1.53,-86,1
1582155561,2020-02-20 00:39,81.52,995.75,1013.82,150,1.41,-1.41,-85,1
1582155621,2020-02-20 00:40,81.09,995.75,1013.82,150,1.41,-1.48,-84,1
1582155681,2020-02-20 00:41,81.00,995.77,1013.84,150,1.41,-1.49,-85,1
1582155741,2020-02-20 00:42,81.07,995.81,1013.88,150,1.41,-1.48,-86,1
1582155801,2020-02-20 00:43,81.12,995.82,1013.89,150,1.41,-1.47,-84,1
1582155861,2020-02-20 00:44,81.42,995.80,1013.87,150,1.41,-1.42,-87,1
1582155921,2020-02-20 00:45,81.50,995.82,1013.89,150,1.40,-1.42,-84,1
1582155981,2020-02-20 00:46,80.63,995.82,1013.89,150,1.40,-1.57,-85,1
1582156041,2020-02-20 00:47,81.44,995.86,1013.94,150,1.41,-1.42,-86,1
1582156101,2020-02-20 00:48,81.80,995.88,1013.95,150,1.41,-1.36,-84,1
1582156161,2020-02-20 00:49,81.63,995.89,1013.96,150,1.41,-1.39,-84,1
1582156221,2020-02-20 00:50,81.30,995.91,1013.98,150,1.41,-1.44,-86,1
1582156281,2020-02-20 00:51,81.09,995.92,1013.99,150,1.42,-1.47,-86,1
1582156342,2020-02-20 00:52,81.76,995.94,1014.01,150,1.42,-1.36,-85,1
1582156402,2020-02-20 00:53,81.60,995.94,1014.01,150,1.42,-1.38,-88,1
1582156462,2020-02-20 00:54,81.50,995.95,1014.02,150,1.42,-1.40,-85,1
1582156522,2020-02-20 00:55,81.42,995.98,1014.06,150,1.42,-1.41,-86,1
1582156582,2020-02-20 00:56,81.83,995.97,1014.05,150,1.42,-1.34,-86,1
1582156642,2020-02-20 00:57,81.28,995.98,1014.05,150,1.43,-1.43,-85,1
1582156702,2020-02-20 00:58,81.61,995.99,1014.06,150,1.43,-1.37,-85,1
1582156762,2020-02-20 00:59,82.23,995.97,1014.04,150,1.43,-1.27,-85,1
1582156822,2020-02-20 01:00,81.88,995.98,1014.05,150,1.43,-1.33,-86,1
1582156882,2020-02-20 01:01,82.27,996.01,1014.08,150,1.43,-1.26,-85,1
1582156942,2020-02-20 01:02,82.05,995.97,1014.04,150,1.43,-1.30,-85,1
1582157002,2020-02-20 01:03,82.20,995.98,1014.06,150,1.42,-1.28,-84,1
1582157062,2020-02-20 01:04,81.01,995.98,1014.05,150,1.43,-1.47,-85,1
1582157122,2020-02-20 01:05,81.15,996.00,1014.08,150,1.43,-1.45,-84,1
1582157182,2020-02-20 01:06,82.04,996.01,1014.08,150,1.42,-1.31,-85,1
1582157242,2020-02-20 01:07,82.15,995.99,1014.06,150,1.41,-1.30,-84,1
1582157302,2020-02-20 01:08,82.11,996.01,1014.08,150,1.40,-1.32,-85,1
1582157362,2020-02-20 01:09,81.54,996.00,1014.07,150,1.40,-1.41,-85,1
1582157422,2020-02-20 01:10,81.84,996.04,1014.11,150,1.40,-1.36,-84,1
1582157482,2020-02-20 01:11,81.90,996.00,1014.07,150,1.40,-1.35,-84,1
1582157542,2020-02-20 01:12,82.17,996.01,1014.08,150,1.39,-1.32,-84,1
1582157602,2020-02-20 01:13,82.13,996.01,1014.09,150,1.40,-1.31,-84,1
1582157663,2020-02-20 01:14,82.37,996.04,1014.11,150,1.40,-1.27,-85,1
1582157723,2020-02-20 01:15,82.92,996.04,1014.11,150,1.41,-1.17,-85,1
1582157783,2020-02-20 01:16,82.51,996.04,1014.11,150,1.43,-1.22,-84,1
1582157843,2020-02-20 01:17,83.00,996.06,1014.13,150,1.45,-1.12,-84,1
1582157903,2020-02-20 01:18,82.97,996.04,1014.12,150,1.46,-1.12,-84,1
1582157963,2020-02-20 01:19,83.10,996.08,1014.15,150,1.47,-1.09,-85,1
1582158023,2020-02-20 01:20,82.87,996.05,1014.13,150,1.50,-1.09,-84,1
1582158083,2020-02-20 01:21,83.15,996.06,1014.13,150,1.53,-1.02,-84,1
1582158143,2020-02-20 01:22,83.08,996.07,1014.15,150,1.56,-1.00,-85,1
1582158203,2020-02-20 01:23,82.96,996.07,1014.14,150,1.58,-1.00,-84,1
1582158263,2020-02-20 01:24,83.08,996.09,1014.16,150,1.61,-0.95,-84,1
1582158323,2020-02-20 01:25,83.01,996.12,1014.19,150,1.64,-0.93,-85,1
1582158383,2020-02-20 01:26,82.77,996.10,1014.17,150,1.66,-0.95,-84,1
1582158443,2020-02-20 01:27,83.00,996.10,1014.17,150,1.68,-0.90,-84,1
1582158503,2020-02-20 01:28,82.66,996.12,1014.19,150,1.71,-0.92,-84,1
1582158563,2020-02-20 01:29,82.81,996.13,1014.20,150,1.73,-0.88,-84,1
1582158623,2020-02-20 01:30,82.23,996.11,1014.18,150,1.76,-0.95,-84,1
1582158683,2020-02-20 01:31,82.44,996.16,1014.23,150,1.77,-0.90,-86,1
1582158743,2020-02-20 01:32,82.44,996.14,1014.21,150,1.79,-0.88,-84,1
1582158803,2020-02-20 01:33,82.23,996.14,1014.21,150,1.81,-0.90,-84,1
1582158863,2020-02-20 01:34,82.28,996.13,1014.20,150,1.82,-0.88,-84,1
1582158923,2020-02-20 01:35,82.21,996.10,1014.18,150,1.83,-0.88,-84,1
1582158983,2020-02-20 01:36,82.47,996.13,1014.21,150,1.84,-0.83,-84,1
1582159044,2020-02-20 01:37,82.62,996.12,1014.20,150,1.86,-0.78,-83,1
1582159104,2020-02-20 01:38,82.48,996.15,1014.22,150,1.87,-0.80,-84,1
1582159164,2020-02-20 01:39,82.44,996.17,1014.24,150,1.88,-0.79,-85,1
1582159224,2020-02-20 01:40,82.59,996.14,1014.21,150,1.90,-0.75,-84,1
1582159284,2020-02-20 01:41,82.47,996.15,1014.22,150,1.91,-0.76,-83,1
1582159344,2020-02-20 01:42,82.48,996.16,1014.23,150,1.94,-0.73,-84,1
1582159404,2020-02-20 01:43,82.67,996.22,1014.29,150,1.95,-0.69,-83,1
1582159464,2020-02-20 01:44,82.59,996.19,1014.26,150,1.97,-0.68,-84,1
1582159524,2020-02-20 01:45,82.29,996.22,1014.29,150,1.99,-0.71,-83,1
1582159584,2020-02-20 01:46,82.38,996.21,1014.28,150,2.00,-0.68,-84,1
1582159644,2020-02-20 01:47,82.61,996.22,1014.30,150,2.02,-0.63,-84,1
1582159704,2020-02-20 01:48,82.46,996.24,1014.31,150,2.04,-0.63,-83,1
1582159764,2020-02-20 01:49,82.49,996.23,1014.30,150,2.05,-0.62,-82,1
1582159824,2020-02-20 01:50,82.54,996.24,1014.31,150,2.08,-0.58,-84,1
1582159884,2020-02-20 01:51,82.32,996.22,1014.30,150,2.09,-0.61,-84,1
1582159944,2020-02-20 01:52,82.35,996.22,1014.29,150,2.10,-0.59,-85,1
1582160004,2020-02-20 01:53,82.42,996.24,1014.31,150,2.12,-0.56,-84,1
1582160064,2020-02-20 01:54,82.31,996.20,1014.28,150,2.13,-0.57,-86,1
1582160124,2020-02-20 01:55,82.10,996.25,1014.32,150,2.14,-0.60,-84,1
1582160184,2020-02-20 01:56,82.38,996.24,1014.31,150,2.15,-0.54,-84,1
1582160244,2020-02-20 01:57,82.16,996.23,1014.30,150,2.16,-0.57,-84,1
1582160304,2020-02-20 01:58,82.09,996.25,1014.32,150,2.17,-0.57,-84,1
1582160364,2020-02-20 01:59,81.96,996.23,1014.30,150,2.17,-0.59,-83,1
1582160424,2020-02-20 02:00,81.97,996.24,1014.32,150,2.18,-0.58,-83,1
1582160484,2020-02-20 02:01,81.78,996.24,1014.31,150,2.20,-0.59,-84,1
1582160545,2020-02-20 02:02,82.30,996.26,1014.34,150,2.20,-0.50,-85,1
1582160605,2020-02-20 02:03,82.36,996.26,1014.33,150,2.21,-0.48,-84,1
1582160665,2020-02-20 02:04,82.41,996.26,1014.33,150,2.23,-0.45,-83,1
1582160725,2020-02-20 02:05,82.31,996.29,1014.36,150,2.24,-0.46,-84,1
1582160785,2020-02-20 02:06,82.29,996.28,1014.35,150,2.25,-0.46,-83,1
1582160845,2020-02-20 02:07,82.22,996.29,1014.36,150,2.26,-0.46,-84,1
1582160905,2020-02-20 02:08,82.05,996.32,1014.39,150,2.27,-0.48,-84,1
1582160965,2020-02-20 02:09,82.30,996.29,1014.36,150,2.28,-0.43,-84,1
1582161025,2020-02-20 02:10,82.27,996.28,1014.35,150,2.29,-0.42,-83,1
1582161085,2020-02-20 02:11,82.11,996.26,1014.34,150,2.31,-0.43,-84,1
1582161145,2020-02-20 02:12,82.16,996.31,1014.38,150,2.31,-0.42,-84,1
1582161205,2020-02-20 02:13,82.08,996.32,1014.39,150,2.32,-0.42,-84,1
1582161265,2020-02-20 02:14,82.07,996.32,1014.39,150,2.33,-0.41,-84,1
1582161325,2020-02-20 02:15,82.04,996.33,1014.40,150,2.34,-0.41,-83,1
1582161385,2020-02-20 02:16,82.24,996.35,1014.42,150,2.35,-0.37,-83,1
1582161445,2020-02-20 02:17,82.15,996.34,1014.41,150,2.36,-0.37,-84,1
1582161505,2020-02-20 02:18,81.77,996.37,1014.44,150,2.36,-0.44,-84,1
1582161565,2020-02-20 02:19,82.15,996.36,1014.43,150,2.36,-0.37,-84,1
1582161625,2020-02-20 02:20,82.46,996.35,1014.42,150,2.38,-0.30,-84,1
1582161685,2020-02-20 02:21,82.42,996.38,1014.45,150,2.38,-0.31,-83,1
1582161745,2020-02-20 02:22,82.31,996.43,1014.50,150,2.40,-0.31,-84,1
1582161805,2020-02-20 02:23,82.12,996.44,1014.51,150,2.41,-0.33,-83,1
1582161865,2020-02-20 02:24,82.19,996.45,1014.52,150,2.42,-0.30,-84,1
1582161925,2020-02-20 02:25,82.77,996.45,1014.53,150,2.43,-0.20,-84,1
1582161985,2020-02-20 02:26,82.73,996.46,1014.53,150,2.44,-0.20,-84,1
1582162045,2020-02-20 02:27,82.98,996.53,1014.60,150,2.46,-0.13,-83,1
1582162106,2020-02-20 02:28,82.55,996.47,1014.54,150,2.45,-0.22,-83,1
1582162166,2020-02-20 02:29,82.57,996.51,1014.58,150,2.48,-0.18,-83,1
1582162226,2020-02-20 02:30,82.72,996.55,1014.62,150,2.49,-0.15,-84,1
1582162286,2020-02-20 02:31,82.62,996.53,1014.60,150,2.48,-0.17,-83,1
1582162346,2020-02-20 02:32,82.81,996.55,1014.62,150,2.50,-0.12,-84,1
1582162406,2020-02-20 02:33,82.92,996.57,1014.65,150,2.52,-0.09,-84,1
1582162466,2020-02-20 02:34,82.64,996.57,1014.64,150,2.53,-0.12,-84,1
1582162526,2020-02-20 02:35,82.78,996.59,1014.66,150,2.54,-0.09,-86,1
1582162586,2020-02-20 02:36,81.64,996.60,1014.67,150,2.56,-0.26,-83,1
1582162646,2020-02-20 02:37,82.77,996.60,1014.67,150,2.56,-0.07,-85,1
1582162706,2020-02-20 02:38,83.01,996.59,1014.66,150,2.58,-0.01,-83,1
1582162766,2020-02-20 02:39,82.92,996.61,1014.69,150,2.60,-0.01,-84,1
1582162826,2020-02-20 02:40,82.79,996.61,1014.68,150,2.61,-0.02,-84,1
1582162886,2020-02-20 02:41,82.96,996.62,1014.69,150,2.62,0.02,-85,1
1582162946,2020-02-20 02:42,82.78,996.61,1014.68,150,2.63,-0.00,-86,1
1582163006,2020-02-20 02:43,83.55,996.63,1014.70,150,2.65,0.15,-84,1
1582163066,2020-02-20 02:44,83.86,996.66,1014.73,150,2.66,0.21,-83,1
1582163126,2020-02-20 02:45,84.14,996.63,1014.70,150,2.67,0.26,-85,1
1582163186,2020-02-20 02:46,82.92,996.67,1014.75,150,2.69,0.08,-85,1
1582163246,2020-02-20 02:47,83.62,996.70,1014.78,150,2.71,0.22,-85,1
1582163306,2020-02-20 02:48,84.15,996.72,1014.79,150,2.71,0.30,-85,1
1582163367,2020-02-20 02:49,84.13,996.69,1014.76,150,2.72,0.31,-83,1
1582163427,2020-02-20 02:50,84.31,996.72,1014.80,150,2.73,0.35,-85,1
1582163487,2020-02-20 02:51,83.92,996.69,1014.76,150,2.75,0.31,-84,1
1582163547,2020-02-20 02:52,84.13,996.73,1014.80,150,2.76,0.35,-84,1
1582163607,2020-02-20 02:53,84.38,996.71,1014.78,150,2.78,0.41,-84,1
1582163667,2020-02-20 02:54,84.06,996.75,1014.82,150,2.80,0.38,-84,1
1582163727,2020-02-20 02:55,83.89,996.75,1014.82,150,2.82,0.37,-83,1
1582163787,2020-02-20 02:56,84.23,996.77,1014.84,150,2.83,0.43,-83,1
1582163847,2020-02-20 02:57,84.04,996.75,1014.82,150,2.85,0.42,-83,1
1582163907,2020-02-20 02:58,84.27,996.78,1014.86,150,2.87,0.48,-83,1
1582163967,2020-02-20 02:59,83.04,996.74,1014.82,150,2.89,0.30,-84,1
1582164027,2020-02-20 03:00,83.38,996.79,1014.86,150,2.90,0.36,-84,1
1582164087,2020-02-20 03:01,84.02,996.81,1014.88,150,2.90,0.47,-84,1
1582164147,2020-02-20 03:02,83.52,996.81,1014.89,150,2.93,0.42,-82,1
1582164207,2020-02-20 03:03,83.66,996.83,1014.90,150,2.95,0.46,-82,1
1582164267,2020-02-20 03:04,83.91,996.82,1014.89,150,2.96,0.51,-83,1
1582164327,2020-02-20 03:05,82.91,996.84,1014.91,150,2.98,0.36,-82,1
1582164387,2020-02-20 03:06,82.84,996.86,1014.93,150,3.00,0.37,-81,1
1582164447,2020-02-20 03:07,83.50,996.84,1014.91,150,3.00,0.48,-81,1
1582164507,2020-02-20 03:08,83.04,996.86,1014.93,150,3.02,0.42,-83,1
1582164567,2020-02-20 03:09,83.63,996.88,1014.95,150,3.02,0.52,-81,1
1582164627,2020-02-20 03:10,83.65,996.91,1014.98,150,3.03,0.53,-83,1
1582164687,2020-02-20 03:11,83.18,996.90,1014.97,150,3.03,0.46,-83,1
1582164747,2020-02-20 03:12,82.81,996.92,1014.99,150,3.05,0.41,-81,1
1582164807,2020-02-20 03:13,83.20,996.92,1014.99,150,3.06,0.49,-82,1
1582164868,2020-02-20 03:14,83.33,996.93,1015.00,150,3.03,0.48,-81,1
1582164928,2020-02-20 03:15,83.29,996.95,1015.02,150,3.06,0.50,-82,1
1582164988,2020-02-20 03:16,82.98,996.96,1015.04,150,3.06,0.45,-81,1
1582165048,2020-02-20 03:17,83.07,996.95,1015.02,150,3.08,0.49,-82,1
1582165108,2020-02-20 03:18,83.12,996.96,1015.03,150,3.09,0.51,-82,1
1582165168,2020-02-20 03:19,82.93,996.94,1015.01,150,3.09,0.47,-82,1
1582165228,2020-02-20 03:20,82.39,996.98,1015.05,150,3.12,0.41,-81,1
1582165288,2020-02-20 03:21,82.99,996.96,1015.04,150,3.11,0.50,-80,1
1582165348,2020-02-20 03:22,82.82,996.99,1015.06,150,3.12,0.48,-80,1
1582165408,2020-02-20 03:23,82.23,997.00,1015.08,150,3.15,0.42,-80,1
1582165468,2020-02-20 03:24,82.81,997.00,1015.07,150,3.14,0.50,-81,1
1582165528,2020-02-20 03:25,82.80,997.03,1015.10,150,3.14,0.50,-82,1
1582165588,2020-02-20 03:26,82.65,997.04,1015.11,150,3.15,0.49,-82,1
1582165648,2020-02-20 03:27,82.51,997.06,1015.13,150,3.15,0.46,-82,1
1582165708,2020-02-20 03:28,82.60,997.08,1015.15,150,3.15,0.48,-83,1
1582165768,2020-02-20 03:29,82.28,997.07,1015.14,150,3.16,0.43,-81,1
1582165828,2020-02-20 03:30,82.26,997.09,1015.16,150,3.16,0.43,-82,1
1582165888,2020-02-20 03:31,82.20,997.13,1015.20,150,3.17,0.43,-82,1
1582165948,2020-02-20 03:32,82.19,997.14,1015.21,150,3.18,0.44,-82,1
1582166008,2020-02-20 03:33,82.51,997.15,1015.22,150,3.18,0.49,-82,1
1582166068,2020-02-20 03:34,82.15,997.13,1015.21,150,3.19,0.44,-80,1
1582166128,2020-02-20 03:35,82.29,997.15,1015.23,150,3.19,0.46,-81,1
1582166189,2020-02-20 03:36,81.99,997.19,1015.26,150,3.19,0.41,-81,1
1582166249,2020-02-20 03:37,82.02,997.22,1015.29,150,3.20,0.43,-81,1
1582166309,2020-02-20 03:38,82.43,997.22,1015.30,150,3.20,0.50,-82,1
1582166369,2020-02-20 03:39,82.28,997.27,1015.35,150,3.22,0.49,-81,1
1582166429,2020-02-20 03:40,82.59,997.30,1015.37,150,3.20,0.52,-82,1
1582166489,2020-02-20 03:41,82.54,997.29,1015.36,150,3.20,0.52,-81,1
1582166549,2020-02-20 03:42,82.63,997.32,1015.40,150,3.20,0.53,-81,1
1582166609,2020-02-20 03:43,82.87,997.33,1015.40,150,3.20,0.57,-82,1
1582166669,2020-02-20 03:44,83.01,997.31,1015.38,150,3.20,0.59,-81,1
1582166729,2020-02-20 03:45,82.48,997.30,1015.37,150,3.20,0.51,-80,1
1582166789,2020-02-20 03:46,82.22,997.35,1015.42,150,3.22,0.48,-82,1
1582166849,2020-02-20 03:47,82.72,997.31,1015.38,150,3.19,0.54,-80,1
1582166909,2020-02-20 03:48,82.65,997.29,1015.37,150,3.18,0.52,-83,1
1582166969,2020-02-20 03:49,82.67,997.33,1015.40,150,3.19,0.53,-81,1
1582167029,2020-02-20 03:50,82.69,997.34,1015.41,150,3.21,0.55,-82,1
1582167089,2020-02-20 03:51,82.89,997.35,1015.43,150,3.21,0.58,-81,1
1582167149,2020-02-20 03:52,82.88,997.35,1015.42,150,3.18,0.55,-81,1
1582167209,2020-02-20 03:53,82.93,997.38,1015.46,150,3.19,0.57,-82,1
1582167269,2020-02-20 03:54,82.83,997.40,1015.47,150,3.17,0.54,-79,1
1582167329,2020-02-20 03:55,83.13,997.44,1015.52,150,3.18,0.60,-82,1
1582167389,2020-02-20 03:56,83.14,997.50,1015.57,150,3.18,0.60,-83,1
1582167449,2020-02-20 03:57,83.08,997.49,1015.56,150,3.18,0.59,-80,1
1582167510,2020-02-20 03:58,82.91,997.52,1015.59,150,3.20,0.58,-82,1
1582167570,2020-02-20 03:59,82.88,997.56,1015.64,150,3.21,0.58,-80,1
1582167630,2020-02-20 04:00,83.02,997.51,1015.58,150,3.20,0.60,-82,1
1582167690,2020-02-20 04:01,83.15,997.54,1015.61,150,3.20,0.62,-82,1
1582167750,2020-02-20 04:02,82.74,997.57,1015.65,150,3.23,0.58,-82,1
1582167810,2020-02-20 04:03,83.20,997.54,1015.61,150,3.22,0.65,-82,1
1582167870,2020-02-20 04:04,82.09,997.58,1015.65,150,3.24,0.48,-82,1
1582167930,2020-02-20 04:05,82.34,997.59,1015.66,150,3.25,0.53,-82,1
1582167990,2020-02-20 04:06,83.07,997.59,1015.66,150,3.23,0.63,-81,1
1582168050,2020-02-20 04:07,82.91,997.62,1015.69,150,3.24,0.62,-82,1
1582168110,2020-02-20 04:08,83.21,997.61,1015.68,150,3.22,0.65,-82,1
1582168170,2020-02-20 04:09,83.30,997.62,1015.69,150,3.21,0.65,-83,1
1582168230,2020-02-20 04:10,83.33,997.64,1015.72,150,3.20,0.65,-80,1
1582168290,2020-02-20 04:11,83.19,997.69,1015.76,150,3.22,0.65,-81,1
1582168350,2020-02-20 04:12,83.08,997.69,1015.76,150,3.23,0.64,-79,1
1582168410,2020-02-20 04:13,82.33,997.71,1015.78,150,3.24,0.52,-82,1
1582168470,2020-02-20 04:14,82.58,997.71,1015.78,150,3.25,0.57,-82,1
1582168530,2020-02-20 04:15,83.11,997.73,1015.80,150,3.22,0.63,-80,1
1582168590,2020-02-20 04:16,82.28,997.73,1015.80,150,3.26,0.53,-81,1
1582168650,2020-02-20 04:17,83.05,997.77,1015.84,150,3.25,0.65,-81,1
1582168710,2020-02-20 04:18,82.51,997.75,1015.82,150,3.25,0.56,-81,1
1582168770,2020-02-20 04:19,83.05,997.78,1015.85,150,3.25,0.65,-82,1
1582168830,2020-02-20 04:20,83.24,997.79,1015.86,150,3.24,0.67,-80,1
1582168890,2020-02-20 04:21,83.07,997.81,1015.88,150,3.21,0.62,-82,1
1582168951,2020-02-20 04:22,83.14,997.80,1015.87,150,3.22,0.64,-81,1
1582169011,2020-02-20 04:23,83.26,997.86,1015.94,150,3.22,0.66,-81,1
1582169071,2020-02-20 04:24,83.38,997.84,1015.91,150,3.18,0.64,-80,1
1582169131,2020-02-20 04:25,83.32,997.90,1015.97,150,3.20,0.65,-81,1
1582169191,2020-02-20 04:26,83.39,997.90,1015.98,150,3.20,0.66,-82,1
1582169251,2020-02-20 04:27,83.24,997.92,1015.99,150,3.20,0.63,-83,1
1582169311,2020-02-20 04:28,83.33,997.92,1015.99,150,3.20,0.65,-82,1
1582169371,2020-02-20 04:29,83.43,997.94,1016.01,150,3.21,0.67,-82,1
1582169431,2020-02-20 04:30,83.41,997.98,1016.06,150,3.22,0.68,-82,1
1582169491,2020-02-20 04:31,83.54,997.96,1016.04,150,3.23,0.71,-82,1
1582169551,2020-02-20 04:32,83.43,998.00,1016.08,150,3.23,0.69,-82,1
1582169611,2020-02-20 04:33,83.39,997.97,1016.04,150,3.22,0.68,-81,1
1582169671,2020-02-20 04:34,83.64,998.01,1016.09,150,3.22,0.72,-82,1
1582169731,2020-02-20 04:35,83.46,998.01,1016.08,150,3.21,0.68,-82,1
1582169791,2020-02-20 04:36,83.34,998.00,1016.07,150,3.23,0.68,-81,1
1582169851,2020-02-20 04:37,83.36,998.01,1016.08,150,3.24,0.69,-80,1
1582169911,2020-02-20 04:38,83.34,998.03,1016.10,150,3.23,0.68,-82,1
1582169971,2020-02-20 04:39,83.28,998.00,1016.07,150,3.21,0.65,-79,1
1582170031,2020-02-20 04:40,83.12,998.04,1016.12,150,3.23,0.64,-82,1
1582170091,2020-02-20 04:41,82.75,998.08,1016.15,150,3.25,0.60,-81,1
1582170151,2020-02-20 04:42,83.03,998.07,1016.14,150,3.24,0.64,-80,1
1582170211,2020-02-20 04:43,82.84,998.07,1016.14,150,3.27,0.63,-80,1
1582170271,2020-02-20 04:44,82.99,998.05,1016.12,150,3.24,0.63,-81,1
1582170331,2020-02-20 04:45,83.25,998.09,1016.16,150,3.23,0.66,-81,1
1582170392,2020-02-20 04:46,82.97,997.97,1016.04,150,3.25,0.64,-81,1
1582170452,2020-02-20 04:47,82.85,998.10,1016.17,150,3.25,0.62,-81,1
1582170512,2020-02-20 04:48,83.10,998.08,1016.15,150,3.21,0.62,-80,1
1582170572,2020-02-20 04:49,83.16,998.08,1016.16,150,3.22,0.64,-82,1
1582170632,2020-02-20 04:50,83.06,998.10,1016.17,150,3.24,0.64,-81,1
1582170692,2020-02-20 04:51,82.91,998.12,1016.20,150,3.24,0.62,-81,1
1582170752,2020-02-20 04:52,83.16,998.11,1016.19,150,3.23,0.65,-84,1
1582170812,2020-02-20 04:53,83.09,998.11,1016.18,150,3.23,0.64,-80,1
1582170872,2020-02-20 04:54,83.27,998.11,1016.18,150,3.24,0.68,-81,1
1582170932,2020-02-20 04:55,82.98,998.18,1016.25,150,3.25,0.64,-83,1
1582170992,2020-02-20 04:56,82.84,998.15,1016.22,150,3.25,0.62,-82,1
1582171052,2020-02-20 04:57,82.96,998.18,1016.25,150,3.25,0.64,-81,1
1582171112,2020-02-20 04:58,83.02,998.21,1016.28,150,3.25,0.65,-82,1
1582171172,2020-02-20 04:59,83.00,998.25,1016.32,150,3.26,0.65,-83,1
1582171232,2020-02-20 05:00,82.92,998.24,1016.31,150,3.27,0.65,-82,1
1582171292,2020-02-20 05:01,83.09,998.24,1016.31,150,3.27,0.68,-82,1
1582171352,2020-02-20 05:02,83.07,998.12,1016.19,150,3.24,0.64,-82,1
1582171412,2020-02-20 05:03,83.08,998.33,1016.40,150,3.26,0.67,-82,1
1582171472,2020-02-20 05:04,83.18,998.30,1016.37,150,3.25,0.67,-83,1
1582171532,2020-02-20 05:05,83.07,998.32,1016.39,150,3.26,0.66,-83,1
1582171592,2020-02-20 05:06,83.19,998.36,1016.43,150,3.26,0.68,-82,1
1582171652,2020-02-20 05:07,83.12,998.36,1016.43,150,3.27,0.68,-81,1
1582171712,2020-02-20 05:08,83.25,998.36,1016.43,150,3.28,0.71,-82,1
1582171772,2020-02-20 05:09,83.20,998.39,1016.46,150,3.27,0.70,-82,1
1582171832,2020-02-20 05:10,83.39,998.45,1016.52,150,3.26,0.72,-81,1
1582171892,2020-02-20 05:11,82.74,998.46,1016.53,150,3.29,0.64,-83,1
1582171953,2020-02-20 05:12,83.20,998.44,1016.51,150,3.28,0.71,-82,1
1582172013,2020-02-20 05:13,83.23,998.46,1016.53,150,3.28,0.71,-84,1
1582172073,2020-02-20 05:14,82.96,998.45,1016.53,150,3.28,0.66,-83,1
1582172133,2020-02-20 05:15,82.97,998.44,1016.52,150,3.29,0.68,-82,1
1582172193,2020-02-20 05:16,83.10,998.46,1016.53,150,3.29,0.70,-82,1
1582172253,2020-02-20 05:17,83.34,998.51,1016.58,150,3.30,0.75,-82,1
1582172313,2020-02-20 05:18,82.81,998.53,1016.61,150,3.30,0.66,-82,1
1582172373,2020-02-20 05:19,82.92,998.52,1016.59,150,3.31,0.69,-81,1
1582172433,2020-02-20 05:20,83.14,998.56,1016.63,150,3.29,0.70,-82,1
1582172493,2020-02-20 05:21,83.14,998.49,1016.56,150,3.28,0.70,-82,1
1582172553,2020-02-20 05:22,83.04,998.52,1016.60,150,3.30,0.70,-81,1
1582172613,2020-02-20 05:23,83.23,998.53,1016.60,150,3.29,0.72,-83,1
1582172673,2020-02-20 05:24,83.25,998.58,1016.65,150,3.29,0.72,-83,1
1582172733,2020-02-20 05:25,83.13,998.56,1016.63,150,3.29,0.70,-82,1
1582172793,2020-02-20 05:26,83.18,998.55,1016.62,150,3.30,0.72,-83,1
1582172853,2020-02-20 05:27,83.23,998.55,1016.62,150,3.30,0.73,-82,1
1582172913,2020-02-20 05:28,82.96,998.57,1016.64,150,3.30,0.69,-82,1
1582172973,2020-02-20 05:29,83.09,998.60,1016.67,150,3.31,0.72,-82,1
1582173033,2020-02-20 05:30,83.13,998.60,1016.67,150,3.32,0.73,-82,1
1582173093,2020-02-20 05:31,83.18,998.60,1016.67,150,3.31,0.73,-82,1
1582173153,2020-02-20 05:32,83.06,998.65,1016.72,150,3.31,0.71,-82,1
1582173213,2020-02-20 05:33,83.17,998.61,1016.69,150,3.31,0.73,-83,1
1582173273,2020-02-20 05:34,83.13,998.65,1016.72,150,3.31,0.72,-82,1
1582173333,2020-02-20 05:35,82.78,998.68,1016.75,150,3.32,0.67,-82,1
1582173393,2020-02-20 05:36,83.14,998.69,1016.76,150,3.30,0.72,-82,1
1582173454,2020-02-20 05:37,83.15,998.65,1016.72,150,3.28,0.70,-83,1
1582173514,2020-02-20 05:38,83.04,998.73,1016.81,150,3.30,0.70,-83,1
1582173574,2020-02-20 05:39,83.12,998.76,1016.83,150,3.31,0.72,-83,1
1582173634,2020-02-20 05:40,83.15,998.76,1016.84,150,3.30,0.72,-82,1
1582173694,2020-02-20 05:41,83.24,998.80,1016.87,150,3.31,0.74,-82,1
1582173754,2020-02-20 05:42,82.99,998.80,1016.87,150,3.31,0.70,-82,1
1582173814,2020-02-20 05:43,83.12,998.69,1016.76,150,3.31,0.72,-83,1
1582173874,2020-02-20 05:44,83.09,998.84,1016.92,150,3.30,0.71,-83,1